Location: Eastlake (historical)
(39.0077°N, 122.6678°W)
Time: 04:48:05
(UTC+00:00)

RESURS DK-1 - Pass Details

Date: 25 November 2020
Orbit: 557 x 560 km, 69.9° (Epoch: 27 January)

Event Time Altitude Azimuth Distance (km) Brightness Sun altitude
Rises 14:07:00 0° 204° (SSW) 2,731 5.8 -11.3°
Reaches altitude 10° 14:09:11 10° 206° (SSW) 1,840 4.9 -10.9°
Maximum altitude 14:13:18 83° 295° (WNW) 569 2.3 -10.1°
Drops below altitude 10° 14:17:27 10° 22° (NNE) 1,855 5.1 -9.4°
Sets 14:19:40 0° 24° (NNE) 2,755 5.9 -9.0°
